Olive Branch, MS

12:28 AM CDT on July 24, 2017 (GMT -0500)
Olive Branch

Weather History for KOLV - March, 2013

Change the Weather History Date:

Saturday, March 16, 2013

  Actual Average (KMEM) Record (KMEM)
Temperature  
Mean Temperature 64 °F -  
Max Temperature 73 °F 62 °F 82 °F (1945)
Min Temperature 55 °F 42 °F 24 °F (1900)
Degree Days  
Heating Degree Days 1    
Growing Degree Days 14 (Base 50)    
Moisture  
Dew Point 52 °F    
Average Humidity 71    
Maximum Humidity 94    
Minimum Humidity 53    
Precipitation  
Precipitation 0.00 in - - ()
Sea Level Pressure  
Sea Level Pressure 29.89 in    
Wind  
Wind Speed 13 mph (SSW)    
Max Wind Speed 20 mph    
Max Gust Speed 26 mph    
Visibility 10 miles    
Events      
Averages and records for this station are not official NWS values.
T = Trace of Precipitation, MM = Missing Value Source: NWS Daily Summary

Daily Weather History Graph

Daily Weather History Graph

Search for Another Location

Airport or City:

Trip Planner

Search our weather history database for the weather conditions in past years. The results will help you decide how hot, cold, wet, or windy it might be!

Date:

Astronomy

Mar. 16, 2013 Rise Set
Actual Time 7:08 AM CDT 7:07 PM CDT
Civil Twilight 6:42 AM CDT 7:33 PM CDT
Nautical Twilight 6:13 AM CDT 8:02 PM CDT
Astronomical Twilight 5:43 AM CDT 8:32 PM CDT
Moon 9:49 AM CDT (3/16) No Moon Set
Length of Visible Light 12h 50m
Length of Day
11h 59m
Waxing Crescent, 23% of the Moon is Illuminated
Mar 16
Waxing Crescent
Mar 19
First Quarter
Mar 27
Full
Apr 2
Last Quarter
Apr 10
New

Hourly Weather History & Observations

Time (CDT) Temp. Dew Point Humidity Pressure Visibility Wind Dir Wind Speed Gust Speed Precip Events Conditions
12:15 AM 62.6 °F 46.4 °F 55% 29.92 in 10.0 mi SSW 16.1 mph 20.7 mph 0.00 in   Clear
12:35 AM 62.6 °F 46.4 °F 55% 29.92 in 10.0 mi SSW 13.8 mph 20.7 mph 0.00 in   Clear
12:55 AM 62.6 °F 46.4 °F 55% 29.91 in 10.0 mi SSW 13.8 mph - 0.00 in   Clear
1:15 AM 62.6 °F 46.4 °F 55% 29.91 in 9.0 mi SSW 13.8 mph - 0.00 in   Clear
1:35 AM 60.8 °F 46.4 °F 59% 29.91 in 10.0 mi SSW 13.8 mph - 0.00 in   Clear
1:55 AM 60.8 °F 48.2 °F 63% 29.91 in 10.0 mi SSW 13.8 mph - 0.00 in   Clear
2:15 AM 60.8 °F 48.2 °F 63% 29.91 in 9.0 mi SSW 13.8 mph - 0.00 in   Clear
2:35 AM 60.8 °F 48.2 °F 63% 29.90 in 10.0 mi SSW 16.1 mph 19.6 mph 0.00 in   Clear
2:55 AM 60.8 °F 50.0 °F 68% 29.90 in 10.0 mi SSW 15.0 mph 20.7 mph 0.00 in   Clear
3:15 AM 60.8 °F 50.0 °F 68% 29.90 in 10.0 mi SSW 17.3 mph - 0.00 in   Clear
3:35 AM 60.8 °F 50.0 °F 68% 29.89 in 10.0 mi SSW 15.0 mph - 0.00 in   Clear
3:55 AM 60.8 °F 51.8 °F 72% 29.89 in 10.0 mi SSW 16.1 mph 20.7 mph 0.00 in   Clear
4:15 AM 59.0 °F 51.8 °F 77% 29.88 in 8.0 mi SSW 16.1 mph 24.2 mph 0.00 in   Clear
4:35 AM 59.0 °F 51.8 °F 77% 29.88 in 10.0 mi SSW 13.8 mph 20.7 mph 0.00 in   Clear
4:55 AM 57.2 °F 51.8 °F 82% 29.88 in 10.0 mi SSW 15.0 mph 21.9 mph 0.00 in   Clear
5:15 AM 57.2 °F 53.6 °F 88% 29.88 in 10.0 mi SSW 13.8 mph - 0.00 in   Clear
5:35 AM 57.2 °F 53.6 °F 88% 29.89 in 9.0 mi SSW 17.3 mph 23.0 mph N/A   Clear
5:55 AM 57.2 °F 53.6 °F 88% 29.89 in 10.0 mi SSW 15.0 mph 21.9 mph 0.00 in   Clear
6:15 AM 57.2 °F 53.6 °F 88% 29.89 in 10.0 mi SSW 15.0 mph 24.2 mph 0.00 in   Clear
6:35 AM 55.4 °F 53.6 °F 94% 29.90 in 10.0 mi SSW 17.3 mph - 0.00 in   Clear
6:50 AM 55.4 °F 53.6 °F 94% 29.90 in 10.0 mi SSW 13.8 mph 23.0 mph N/A   Scattered Clouds
6:55 AM 55.4 °F 53.6 °F 94% 29.90 in 10.0 mi SSW 13.8 mph 20.7 mph N/A   Clear
10:50 AM 64.4 °F 53.6 °F 68% 29.94 in 10.0 mi SW 16.1 mph 26.5 mph N/A   Partly Cloudy
12:50 PM 71.6 °F 55.4 °F 57% 29.92 in 10.0 mi SSW 19.6 mph 26.5 mph N/A   Scattered Clouds
1:50 PM 71.6 °F 55.4 °F 57% 29.90 in 10.0 mi WSW 11.5 mph 17.3 mph N/A   Mostly Cloudy
2:50 PM 73.4 °F 55.4 °F 53% 29.87 in 10.0 mi SW 12.7 mph 18.4 mph N/A   Mostly Cloudy
3:50 PM 73.4 °F 55.4 °F 53% 29.86 in 10.0 mi SW 11.5 mph 17.3 mph N/A   Mostly Cloudy
4:50 PM 73.4 °F 55.4 °F 53% 29.86 in 10.0 mi WSW 9.2 mph - N/A   Mostly Cloudy
5:50 PM 71.6 °F 55.4 °F 57% 29.85 in 10.0 mi South 11.5 mph - N/A   Mostly Cloudy
6:50 PM 69.8 °F 55.4 °F 60% 29.86 in 10.0 mi South 9.2 mph - N/A   Mostly Cloudy
7:50 PM 64.4 °F 55.4 °F 73% 29.87 in 10.0 mi Calm Calm - N/A   Clear
9:15 PM 62.6 °F 55.4 °F 77% 29.87 in 9.0 mi South 5.8 mph - 0.00 in   Clear
9:35 PM 62.6 °F 55.4 °F 77% 29.87 in 10.0 mi South 6.9 mph - 0.00 in   Clear
9:55 PM 60.8 °F 55.4 °F 82% 29.88 in 9.0 mi South 4.6 mph - 0.00 in   Clear
10:15 PM 62.6 °F 53.6 °F 72% 29.88 in 10.0 mi South 4.6 mph - 0.00 in   Clear
10:35 PM 60.8 °F 53.6 °F 77% 29.89 in 10.0 mi South 5.8 mph - 0.00 in   Clear
10:55 PM 60.8 °F 53.6 °F 77% 29.89 in 10.0 mi South 4.6 mph - 0.00 in   Clear
11:15 PM 62.6 °F 53.6 °F 72% 29.89 in 10.0 mi Calm Calm - 0.00 in   Clear
11:35 PM 60.8 °F 53.6 °F 77% 29.89 in 10.0 mi Calm Calm - 0.00 in   Clear
11:55 PM 60.8 °F 53.6 °F 77% 29.89 in 10.0 mi Calm Calm - 0.00 in   Clear